Zurück zum Katalog

STARLINK-37199

AktivKommunikationVLEO
NORAD 68327·PAYLOAD·🇺🇸 United States

Gestartet Mar 22, 2026 von Cape Canaveral Space Force Station

Loading…

Nächste Überflüge (nächste 24 Stunden)

TLE

AktuellSource: CelesTrak SupGP

Epoche: Sep 15, 2026, 03:06 UTC

1 68327C 26059G   26258.12965278 -.00053633  00000+0 -15847-2 0  2587
2 68327  53.1578 186.4618 0001348  83.2661  17.2379 15.34415278    13

Verfolge STARLINK-37199 in Echtzeit mit AllMySat

Download on the App Store